Regional Weather Roundup
Issued by NWS Little Rock, AR

Home | Current Version | Previous Version | Text Only | Print | Product List | Glossary On
Versions: 1 2 3 4 5 6 7 8 9 10 11 12 13 14 15 16 17 18 19 20 21 22 23 24 25 26 27 28 29 30 31
000
ASUS44 KLZK 251105
RWRLZK

WEATHER ROUNDUP FOR ARKANSAS
NATIONAL WEATHER SERVICE LITTLE ROCK AR
600 AM CDT THU MAY 25 2017

NOTE: "FAIR" INDICATES FEW OR NO CLOUDS BELOW 12,000 FEET WITH NO
SIGNIFICANT WEATHER AND/OR OBSTRUCTIONS TO VISIBILITY.

ARZ001-003-010-029-251200-
NORTHWEST ARKANSAS

CITY           SKY/WX    TMP DP  RH WIND       PRES   REMARKS
FAYETTEVILLE   CLEAR     43  43 100 CALM      29.75R
FORT SMITH     CLEAR     50  48  93 E6        29.74S
HARRISON       CLEAR     47  47 100 SW5       29.74S
BENTONVILLE    CLEAR     46  43  87 CALM      29.74S
ROGERS         CLEAR     47  45  93 SE3       29.75R
SILOAM SPGS    CLEAR     45  39  81 SE3       29.74S
HIGHFILL       CLEAR     44  43  96 CALM      29.74S
SPRINGDALE     CLEAR     46  46 100 E3        29.75
$$

ARZ004-005-016-251200-
NORTH CENTRAL ARKANSAS

CITY           SKY/WX    TMP DP  RH WIND       PRES   REMARKS
BATESVILLE     CLEAR     48  46  93 W3        29.75R
FLIPPIN        CLEAR     46  43  87 CALM      29.73R
MTN HOME       CLEAR     46  45  96 CALM      29.74R
$$

ARZ040-041-251200-
WEST CENTRAL ARKANSAS

CITY           SKY/WX    TMP DP  RH WIND       PRES   REMARKS
MENA           CLEAR     45  45 100 CALM      29.77S
MOUNT IDA      CLEAR     46  44  93 CALM      29.74S
$$

ARZ009-017-025-026-028-251200-
NORTHEAST ARKANSAS

CITY           SKY/WX    TMP DP  RH WIND       PRES   REMARKS
JONESBORO      CLEAR     53  50  89 W10       29.73R
WALNUT RIDGE   CLEAR     52  46  82 W5        29.73R
BLYTHEVILLE    CLEAR     53  51  93 W8        29.71R
$$

ARZ022-023-033-042-044-251200-
CENTRAL ARKANSAS

CITY           SKY/WX    TMP DP  RH WIND       PRES   REMARKS
LITTLE ROCK    PTCLDY    50  50 100 W3        29.76R
N LITTLE ROCK    N/A     53  50  90 W3        29.77R
JACKSONVILLE   CLEAR     49  49  99 W5        29.75R
CONWAY           N/A     52  52 100 CALM      29.75R
SEARCY         CLEAR     48  48 100 CALM      29.77R
HOT SPRINGS    CLEAR     49  48  97 CALM      29.76S
RUSSELLVILLE   CLEAR     47  46  97 CALM      29.77R
$$

ARZ036-251200-
EAST ARKANSAS

CITY           SKY/WX    TMP DP  RH WIND       PRES   REMARKS
WEST MEMPHIS   CLEAR     52  52 100 VRB5      29.73R
$$

ARZ050-053-066-070-073-251200-
SOUTHWEST ARKANSAS

CITY           SKY/WX    TMP DP  RH WIND       PRES   REMARKS
ARKADELPHIA    FAIR      48  48 100 CALM      29.77S
CAMDEN         CLEAR     46  45  93 CALM      29.79R
TEXARKANA      CLEAR     50  50 100 CALM      29.79R
EL DORADO      CLEAR     48  47  96 SW5       29.80R
DE QUEEN       CLEAR     47  47 100 CALM      29.77R
$$

ARZ056-057-069-251200-
SOUTHEAST ARKANSAS

CITY           SKY/WX    TMP DP  RH WIND       PRES   REMARKS
PINE BLUFF     CLEAR     51  49  92 CALM      29.77R
STUTTGART      CLEAR     54  41  62 SW9       29.77R
MONTICELLO     CLEAR     51  49  92 CALM      29.78R

$$






USA.gov is the U.S. government's official web portal to all federal, state and local government web resources and services.